CW9386 Weather Reports


time (UTC)temp
C
wind
direction
speed
KPH
gust
KPH
rain 1hr
cm
rain 24hr
cm
rain mn
cm
humidity
%
barometer
mb
20260502160734 11 271 1.6 6.4 0.00 0.30 0.13 82 1024.0
20260502151722 11 226 6.4 14.5 0.00 0.30 0.13 86 1023.4
20260502130729 9 220 0.0 3.2 0.00 0.43 0.13 89 1022.1
20260502123714 9 284 1.6 9.7 0.00 0.48 0.13 90 1021.6
20260502122710 9 285 3.2 12.9 0.00 0.48 0.13 90 1022.4
20260502121721 10 332 3.2 8.0 0.00 0.48 0.13 91 1022.2
20260502120720 10 284 3.2 4.8 0.00 0.48 0.13 91 1022.1
20260502115711 10 273 3.2 4.8 0.00 0.48 0.13 91 1021.9
20260502114726 10 62 0.0 1.6 0.03 0.48 0.13 90 1021.7
20260502113725 10 62 1.6 3.2 0.05 0.48 0.13 90 1021.8
20260502112717 10 73 0.0 3.2 0.05 0.48 0.13 90 1021.9
20260502111727 10 70 0.0 3.2 0.08 0.48 0.13 90 1021.9
20260502110726 10 96 1.6 3.2 0.08 0.48 0.13 89 1021.8
20260502105724 10 138 0.0 4.8 0.10 0.76 0.13 89 1022.0
20260502104714 10 204 0.0 3.2 0.08 0.74 0.10 88 1022.0
20260502103725 10 241 1.6 8.0 0.08 0.71 0.08 87 1022.1
20260502102716 10 238 3.2 6.4 0.08 0.71 0.08 87 1022.1
20260502101710 10 243 4.8 9.7 0.05 0.69 0.05 85 1022.1
20260502100725 11 267 4.8 12.9 0.05 0.69 0.05 86 1022.0
20260502070716 11 256 0.0 6.4 0.00 0.97 0.00 81 1020.9
20260502064715 11 323 1.6 4.8 0.00 0.97 0.00 82 1020.6
20260502063711 11 360 3.2 4.8 0.00 0.97 0.00 83 1020.3
20260502061724 11 173 0.0 6.4 0.00 0.97 0.00 84 1020.0
20260502060722 11 178 1.6 6.4 0.00 0.97 0.00 84 1019.8
20260502054707 12 211 3.2 11.3 0.00 0.97 0.97 84 1019.7
20260502053719 12 154 6.4 11.3 0.00 0.97 0.97 84 1019.7
20260502052718 12 200 9.7 17.7 0.00 0.97 0.97 84 1019.6
20260502051708 12 198 6.4 11.3 0.00 0.97 0.97 81 1019.3
20260502050706 12 103 6.4 11.3 0.00 0.97 0.97 74 1019.3
20260502045704 12 26 8.0 14.5 0.00 0.97 0.97 72 1019.2
20260502044722 12 105 6.4 11.3 0.00 0.97 0.97 73 1018.9
20260502043719 12 140 4.8 11.3 0.00 0.97 0.97 75 1018.7
20260502042717 12 38 0.0 6.4 0.00 0.97 0.97 79 1018.8
20260502040709 12 87 0.0 3.2 0.00 0.97 0.97 85 1018.8
20260502034719 12 261 0.0 0.0 0.00 0.97 0.97 85 1018.5
20260502033705 12 325 0.0 1.6 0.00 0.97 0.97 85 1018.3
20260502032711 12 320 0.0 4.8 0.00 0.97 0.97 87 1018.0
20260502031708 12 328 0.0 3.2 0.03 0.97 0.97 87 1018.3
20260502030703 12 328 1.6 6.4 0.03 0.97 0.97 87 1018.2
20260502025703 12 291 1.6 4.8 0.03 0.97 0.97 87 1017.9
20260502024711 12 211 0.0 4.8 0.03 0.97 0.97 86 1017.7
20260502023706 12 82 0.0 1.6 0.08 0.97 0.97 85 1017.3
20260502022721 12 80 0.0 4.8 0.13 0.97 0.97 85 1017.1
20260502021715 12 130 3.2 9.7 0.15 0.94 0.94 84 1016.9
20260502020709 12 206 3.2 9.7 0.15 0.94 0.94 85 1016.8
20260502015721 13 189 4.8 11.3 0.15 0.94 0.94 84 1016.7
20260502014717 13 343 0.0 6.4 0.15 0.94 0.94 83 1016.9
20260502013709 13 318 4.8 20.9 0.10 0.89 0.89 81 1017.2
20260502012701 13 318 6.4 25.7 0.05 0.84 0.84 78 1017.0
20260502011718 15 351 16.1 27.4 0.03 0.81 0.81 71 1016.8
20260502010711 16 15 3.2 16.1 0.00 0.79 0.79 62 1016.0
20260502005705 17 91 6.4 20.9 0.00 0.79 0.79 54 1015.4
20260502004714 17 81 9.7 22.5 0.00 0.79 0.79 51 1015.2
20260502003708 18 60 14.5 20.9 0.00 0.79 0.79 49 1015.3
20260502002704 18 57 8.0 17.7 0.00 0.79 0.79 49 1015.1
20260502001713 18 20 11.3 19.3 0.00 0.79 0.79 47 1015.1
20260502000708 18 80 11.3 17.7 0.00 0.79 0.79 44 1015.1
20260501235705 18 79 4.8 17.7 0.00 0.79 0.79 44 1015.0
20260501234714 19 11 12.9 20.9 0.00 0.79 0.79 43 1014.9
20260501233709 19 9 11.3 16.1 0.00 0.79 0.79 43 1014.9
20260501232705 20 50 1.6 14.5 0.00 0.79 0.79 40 1014.9
20260501231659 20 26 6.4 16.1 0.00 0.79 0.79 41 1014.7
20260501230734 20 28 4.8 17.7 0.00 0.79 0.79 41 1014.4
20260501225711 21 76 11.3 19.3 0.00 0.79 0.79 40 1014.3
20260501224708 21 64 6.4 16.1 0.00 0.79 0.79 40 1014.2
20260501223659 21 115 3.2 17.7 0.00 0.79 0.79 38 1014.1
20260501222714 21 5 4.8 14.5 0.00 0.79 0.79 38 1014.1
20260501221713 21 97 6.4 16.1 0.00 0.79 0.79 40 1014.0
20260501220700 21 73 3.2 17.7 0.00 0.79 0.79 40 1014.1
20260501215715 21 26 6.4 16.1 0.00 0.79 0.79 40 1014.2
20260501214656 20 351 6.4 14.5 0.00 0.79 0.79 40 1014.2
20260501213713 20 22 11.3 17.7 0.00 0.79 0.79 43 1014.4
20260501212706 20 23 11.3 19.3 0.00 0.79 0.79 42 1014.6
20260501211703 20 24 6.4 16.1 0.00 0.79 0.79 43 1014.7
20260501210658 20 34 9.7 16.1 0.00 0.79 0.79 44 1014.7
20260501205655 20 58 8.0 22.5 0.00 0.79 0.79 44 1014.7
20260501204654 20 42 11.3 17.7 0.00 0.79 0.79 45 1014.8
20260501203708 20 49 9.7 16.1 0.00 0.79 0.79 49 1015.0
20260501202704 19 27 11.3 19.3 0.00 0.79 0.79 49 1015.0
20260501201658 18 57 9.7 24.1 0.00 0.79 0.79 52 1015.0
20260501195711 18 36 11.3 22.5 0.00 0.79 0.79 54 1015.0
20260501194710 18 5 16.1 20.9 0.00 0.79 0.79 53 1014.9
20260501193712 18 44 9.7 19.3 0.00 0.79 0.79 54 1015.0
20260501192657 18 63 9.7 16.1 0.00 0.79 0.79 55 1015.9
20260501191654 18 24 11.3 19.3 0.00 0.79 0.79 56 1015.9
20260501190711 18 49 3.2 19.3 0.00 0.79 0.79 56 1015.9
20260501185704 17 59 6.4 17.7 0.00 0.79 0.79 59 1015.8
20260501184656 17 79 8.0 16.1 0.00 0.79 0.79 62 1015.8
20260501183652 17 12 9.7 16.1 0.00 0.79 0.79 60 1015.8
20260501182656 17 71 11.3 20.9 0.00 0.79 0.79 61 1015.8
20260501181651 16 42 9.7 17.7 0.00 0.79 0.79 63 1015.8
20260501180709 16 19 8.0 16.1 0.00 0.79 0.79 67 1015.8
20260501175702 15 43 11.3 19.3 0.00 0.79 0.79 68 1015.9
20260501174657 15 34 8.0 19.3 0.00 0.79 0.79 71 1015.8
20260501173653 15 56 11.3 20.9 0.00 0.79 0.79 70 1015.9
20260501172703 15 62 12.9 22.5 0.00 0.79 0.79 72 1015.7
20260501170652 15 42 12.9 25.7 0.00 0.79 0.79 72 1015.6
20260501165705 15 46 14.5 24.1 0.00 0.79 0.79 74 1015.4
20260501163654 14 28 16.1 22.5 0.00 0.79 0.79 77 1015.1